Find Starlink 31335

NORAD ID: 58969 Int'l Des: 2024-031 Owner: SPXS Country: US Constellation: starlink operational
LEOCIRCULAR

Current View

Loading 3D Globe...

About Starlink 31335

Starlink 31335 (NORAD 58969) is a starlink constellation satellite (v2 mini) launched Feb 15, 2024 by SPXS of US. It operates in LEO, CIRCULAR orbit with a mass of 730.00 kg.

About Starlink 31335

Description loading...

Upcoming Passes

Passes for default location (London). Set your location on the main map for personalized predictions.

Altitude History

Loading altitude history...

Two-Line Element Set

1 58969U 24031E 26170.30929647 -.00000010 00000-0 10828-4 0 9998
2 58969 53.1605 180.9945 0001268 82.5635 277.5511 15.34389729132141
Epoch: Jun 19, 2026 • Age: 8 hours

Current Status

Altitude 462.9 km
Velocity 7.64 km/s
Sub-Earth Point 5.75°N, 46.85°E
Launch Date Feb 15, 2024
Age 2.3 years
Type internet

Technical Details

Classification Payload
Mass 730.00 kg
Dry Mass 700.00 kg
Total Mass 730.00 kg
Length 0.30 m
Diameter 4.10 m
Span 29.00 m
Shape Box + pan
Manufacturer SPXS
Bus Type Starlink V2M
Phase Status In Orbit
Owner/State SPXS/US

Most Searched